Retour au catalogue

QIANFAN-107

ActifCommunicationsPO
NORAD 66049·PAYLOAD·🇨🇳 China

Lancé Oct 17, 2025 depuis Taiyuan Satellite Launch Center

Loading…

Prochains Passages (prochaines 24 heures)

TLE

FraisSource: Space-Track

Époque: Sep 14, 2026, 19:32 UTC

1 66049U 25233S   26257.81442377  .00000077  00000-0  10067-3 0  9999
2 66049  89.0056  34.1313 0001893  93.9578 266.1790 13.51028787 45295

Suivez QIANFAN-107 en temps réel avec AllMySat

Download on the App Store